Location: Artiguedieu
(43.5000°N, 0.5454°E)
Time: 12:47:10
(UTC+00:00)

MOS 1 Rocket - Pass Details

Date: 06 December 2020
Orbit: 613 x 831 km, 97.4° (Epoch: 27 January)

Event Time Altitude Azimuth Distance (km) Brightness Sun altitude
Rises 05:56:18 0° 174° (S) 3,133 7.0 -14.0°
Reaches altitude 10° 05:58:31 10° 177° (S) 2,248 6.2 -13.7°
Maximum altitude 06:03:28 66° 260° (W) 843 3.5 -12.8°
Drops below altitude 10° 06:08:45 10° 343° (NNW) 2,390 5.7 -11.9°
Sets 06:11:11 0° 346° (NNW) 3,347 6.5 -11.5°
